Change the Weather History Date:

Saturday, February 9, 2013

  Actual Average Record
Temperature  
Mean Temperature 38 °F -  
Max Temperature 43 °F - 61 °F (2007)
Min Temperature 31 °F - 27 °F (2009)
Degree Days  
Heating Degree Days 28    
Month to date heating degree days 203  
Since 1 July heating degree days 2733  
Cooling Degree Days 0    
Month to date cooling degree days 0  
Year to date cooling degree days 0  
Moisture  
Dew Point 39 °F    
Average Humidity 95    
Maximum Humidity 100    
Minimum Humidity 89    
Precipitation  
Precipitation 0.04 in - 0.86 in (1969)
Month to date precipitation 0.46  
Year to date precipitation 2.47  
Sea Level Pressure  
Sea Level Pressure 30.30 in    
Wind  
Wind Speed 1 mph (South)    
Max Wind Speed 7 mph    
Max Gust Speed 9 mph    
Visibility 4 miles    
Events Rain    
T = Trace of Precipitation, MM = Missing Value Source: NWS Daily Summary

Daily Weather History Graph

Daily Weather History Graph

Search for Another Location

Airport or City:

Trip Planner

Search our weather history database for the weather conditions in past years. The results will help you decide how hot, cold, wet, or windy it might be!

Date:

Astronomy

Feb. 09, 2013 Rise Set
Actual Time 7:20 AM PST 5:30 PM PST
Civil Twilight 6:49 AM PST 6:01 PM PST
Nautical Twilight 6:15 AM PST 6:36 PM PST
Astronomical Twilight 5:40 AM PST 7:10 PM PST
Moon 6:35 AM PST (2/9) 5:21 PM PST (2/9)
Length of Visible Light 11h 11m
Length of Day
10h 09m
Waning Crescent, 0% of the Moon is Illuminated
Feb 9
Waning Crescent
Feb 9
New
Feb 17
First Quarter
Feb 25
Full
Mar 4
Last Quarter

Hourly Weather History & Observations

Time (PST) Temp. Windchill Dew Point Humidity Pressure Visibility Wind Dir Wind Speed Gust Speed Precip Events Conditions
12:53 AM 34.0 °F - 33.1 °F 96% 30.29 in 8.0 mi Calm Calm - N/A   Clear
1:53 AM 33.1 °F - 32.0 °F 96% 30.30 in 3.0 mi Calm Calm - N/A   Partly Cloudy
2:53 AM 32.0 °F - 30.9 °F 96% 30.30 in 5.0 mi Calm Calm - N/A   Overcast
3:53 AM 32.0 °F - 32.0 °F 100% 30.30 in 5.0 mi Calm Calm - N/A   Scattered Clouds
4:53 AM 33.1 °F - 32.0 °F 96% 30.30 in 6.0 mi Calm Calm - N/A   Overcast
5:53 AM 33.1 °F - 32.0 °F 96% 30.30 in 6.0 mi Calm Calm - N/A   Overcast
6:53 AM 33.1 °F - 33.1 °F 100% 30.29 in 7.0 mi Calm Calm - N/A   Overcast
7:53 AM 35.1 °F - 34.0 °F 96% 30.31 in 8.0 mi Calm Calm - N/A   Overcast
8:42 AM 35.6 °F - 33.8 °F 93% 30.30 in 5.0 mi Calm Calm - N/A   Overcast
8:53 AM 35.1 °F - 35.1 °F 100% 30.31 in 5.0 mi Calm Calm - 0.00 in   Overcast
9:13 AM 35.6 °F - 35.6 °F 100% 30.31 in 3.0 mi Calm Calm - 0.00 in   Overcast
9:37 AM 37.4 °F - 35.6 °F 93% 30.31 in 2.5 mi Calm Calm - 0.00 in   Overcast
9:53 AM 37.9 °F - 37.0 °F 97% 30.31 in 2.5 mi Calm Calm - 0.00 in   Overcast
10:01 AM 37.4 °F 34.9 °F 37.4 °F 100% 30.31 in 3.0 mi SSW 3.5 mph - N/A   Overcast
10:19 AM 37.4 °F - 37.4 °F 100% 30.31 in 2.5 mi Calm Calm - N/A   Overcast
10:31 AM 37.4 °F - 37.4 °F 100% 30.32 in 1.5 mi Calm Calm - 0.00 in Rain Light Rain
10:53 AM 39.9 °F 37.8 °F 39.0 °F 97% 30.32 in 1.8 mi South 3.5 mph - 0.01 in   Overcast
10:59 AM 39.2 °F 35.9 °F 39.2 °F 100% 30.32 in 2.0 mi SSE 4.6 mph - N/A   Overcast
11:12 AM 39.2 °F 37.0 °F 39.2 °F 100% 30.32 in 2.5 mi SSE 3.5 mph - N/A   Overcast
11:19 AM 39.2 °F 35.9 °F 39.2 °F 100% 30.32 in 3.0 mi SSE 4.6 mph - N/A   Overcast
11:43 AM 41.0 °F 38.0 °F 39.2 °F 93% 30.31 in 2.5 mi South 4.6 mph - N/A   Overcast
11:53 AM 41.0 °F 39.0 °F 39.9 °F 96% 30.31 in 3.0 mi South 3.5 mph - N/A   Overcast
12:53 PM 42.1 °F - 39.9 °F 92% 30.30 in 6.0 mi Calm Calm - N/A   Overcast
1:19 PM 42.8 °F - 39.2 °F 87% 30.30 in 4.0 mi Calm Calm - N/A   Overcast
1:38 PM 42.8 °F - 41.0 °F 93% 30.29 in 4.0 mi Calm Calm - N/A   Overcast
1:53 PM 42.1 °F - 41.0 °F 96% 30.30 in 5.0 mi Calm Calm - N/A   Overcast
2:53 PM 42.1 °F 39.2 °F 41.0 °F 96% 30.29 in 3.0 mi SSW 4.6 mph - N/A   Overcast
3:03 PM 42.8 °F 40.1 °F 42.8 °F 100% 30.28 in 4.0 mi SSW 4.6 mph - N/A   Overcast
3:49 PM 42.8 °F - 42.8 °F 100% 30.29 in 4.0 mi Calm Calm - N/A   Overcast
3:53 PM 43.0 °F - 42.1 °F 97% 30.30 in 3.0 mi Calm Calm - N/A   Overcast
4:07 PM 42.8 °F 41.1 °F 42.8 °F 100% 30.29 in 2.5 mi South 3.5 mph - N/A   Overcast
4:43 PM 42.8 °F - 42.8 °F 100% 30.29 in 3.0 mi Calm Calm - 0.01 in   Overcast
4:53 PM 42.1 °F - 42.1 °F 100% 30.30 in 4.0 mi Calm Calm - 0.01 in   Overcast
5:01 PM 42.8 °F - 41.0 °F 93% 30.29 in 4.0 mi Calm Calm - N/A   Overcast
5:40 PM 42.8 °F - 41.0 °F 93% 30.30 in 2.0 mi Calm Calm - 0.01 in Rain Light Rain
5:53 PM 42.1 °F - 42.1 °F 100% 30.31 in 2.0 mi Calm Calm - 0.01 in Rain Light Rain
6:53 PM 42.1 °F 40.2 °F 41.0 °F 96% 30.31 in 2.0 mi SSW 3.5 mph - 0.01 in   Overcast
7:17 PM 42.8 °F - 41.0 °F 93% 30.30 in 3.0 mi Calm Calm - N/A   Overcast
7:53 PM 42.1 °F 40.2 °F 41.0 °F 96% 30.30 in 4.0 mi SW 3.5 mph - N/A   Overcast
8:53 PM 41.0 °F - 41.0 °F 100% 30.30 in 4.0 mi Calm Calm - N/A   Overcast
9:53 PM 42.1 °F - 41.0 °F 96% 30.31 in 5.0 mi Calm Calm - N/A   Overcast
10:53 PM 41.0 °F 39.0 °F 41.0 °F 100% 30.32 in 4.0 mi South 3.5 mph - 0.00 in   Overcast
11:04 PM 41.0 °F 39.0 °F 41.0 °F 100% 30.31 in 3.0 mi South 3.5 mph - N/A   Overcast
11:23 PM 41.0 °F 39.0 °F 41.0 °F 100% 30.32 in 4.0 mi South 3.5 mph - N/A   Overcast
11:46 PM 42.8 °F - 41.0 °F 93% 30.32 in 5.0 mi Calm Calm - N/A   Overcast
11:53 PM 41.0 °F - 41.0 °F 100% 30.32 in 4.0 mi Calm Calm - N/A   Overcast